Location: Andrest
(43.3200°N, 0.0641°E)
Time: 15:16:15
(UTC+00:00)

USA 267 - Pass Details

Date: 01 December 2020
Orbit: 1100 x 1107 km, 123.0° (Epoch: 18 January)

Event Time Altitude Azimuth Distance (km) Brightness Sun altitude
Exits shadow 19:21:25 62° 360° (N) 1,230 3.4 -31.4°
Drops below altitude 10° 19:27:10 10° 314° (NW) 2,967 6.0 -32.5°
Sets 19:29:40 0° 312° (NW) 3,928 6.8 -32.9°
